[[{"header":{"parameterUnit":"m.s-1","parameterCategory":1,"la1":30.2991,"la2":30.254,"lo1":-89.0895,"lo2":-89.0444,"dy":0.0017,"dx":0.0017,"nx":28,"ny":28,"refTime":"2024-05-09T21:00:00:Z","depth":0,"parameterNumber":2,"parameterNumberName":"U-component_of_WINDS"},"data":[0,0,0,0,0,0,0,0,0,0,0,0,0,0,0,0,0,0,0,0,0,0,0,0,0,0,0,0,0,0,0,0,0,0,0,0,0,0,0,0,0,0,0,0,0,0,0,0,0,0,0,0,0,0,0,0,0,0,0.1745,0.1746,0,0.1775,0.1775,0.1775,0.1829,0.183,0.1831,0.1832,0.186,0.1859,0.1859,0,0,0,0,0,0,0,0,0,0,0,0,0,0.1734,0.1733,0.1745,0.1746,0.1746,0.1775,0.1775,0.1775,0.1829,0.183,0.1831,0.1832,0.186,0.186,0.1859,0,0,0,0,0,0,0,0,0,0,0,0,0,0.1748,0.1733,0.1745,0.1776,0.1779,0.1774,0.1775,0.1775,0.1828,0.183,0.1832,0.1833,0.186,0.186,0.1859,0.1826,0,0,0.1858,0.1858,0,0,0,0,0,0,0,0,0.1747,0.1749,0.1771,0.1774,0.1777,0.18,0.1781,0.1792,0.1828,0.181,0.1832,0.1834,0.1838,0.184,0.1842,0.1827,0.1828,0.1858,0.1858,0.1858,0.1858,0,0,0,0,0,0,0,0.1746,0.1748,0.1757,0.1771,0.1775,0.1788,0.1792,0.1783,0.1815,0.1811,0.1815,0.1818,0.184,0.1842,0.1843,0.1829,0.1858,0.1858,0.1858,0.1857,0.1788,0.1786,0,0,0,0,0,0,0.1741,0.1746,0.1756,0.1758,0.1766,0.1787,0.1791,0.1791,0.1815,0.182,0.1817,0.1821,0.1842,0.1843,0.1844,0.1806,0.1858,0.1857,0.1857,0.1789,0.1788,0.1786,0,0,0,0,0,0,0.174,0.1741,0.1755,0.1753,0.1756,0.1785,0.1785,0.1791,0.1793,0.1819,0.1825,0.1813,0.1843,0.1845,0.183,0.1808,0.1857,0.1857,0.1791,0.1789,0.1787,0.173,0,0,0,0,0,0,0.174,0.1741,0.1729,0.1753,0.1756,0.1741,0.1783,0.179,0.1792,0.1797,0.1817,0.1822,0.1845,0.183,0.183,0.1808,0.1857,0.1794,0.179,0.1787,0.1734,0.1726,0.1719,0,0,0,0,0,0.1739,0.1711,0.1728,0.1729,0.1742,0.1739,0.1741,0.1768,0.179,0.1778,0.1795,0.1821,0.1811,0.1828,0.1828,0.1806,0.1795,0.1791,0.1788,0.1737,0.1728,0.1719,0,0,0,0,0,0,0.1683,0.1715,0.1734,0.1713,0.1723,0.1748,0.1734,0.1757,0.1761,0.1765,0.1798,0.1802,0.1783,0.1794,0.1813,0.1775,0.1807,0.1803,0.1769,0.176,0.1752,0.175,0.1856,0,0,0,0,0,0.1669,0.1665,0.1693,0.1672,0.1676,0.1704,0.1704,0.1724,0.1736,0.174,0.1756,0.1766,0.1765,0.1763,0.1763,0.1736,0.1741,0.1721,0.1714,0.1708,0.1703,0.1689,0.168,0.1774,0.1774,0.1774,0,0,0.1638,0.1655,0.1651,0.1661,0.1671,0.1665,0.1707,0.17,0.1695,0.1739,0.1726,0.1738,0.1751,0.173,0.1721,0.1738,0.1679,0.1703,0.1698,0.1697,0.1684,0.1675,0.1667,0.1771,0.1772,0.1772,0,0,0.158,0.1593,0.1576,0.1586,0.1601,0.162,0.1616,0.1638,0.1648,0.1636,0.1668,0.1663,0.1661,0.1669,0.1672,0.1617,0.164,0.1616,0.1576,0.1562,0.1555,0.1548,0.1528,0.152,0.1612,0.1612,0.1612,0,0.1539,0.1533,0.1564,0.1555,0.1558,0.1598,0.1581,0.1589,0.1603,0.1604,0.1622,0.162,0.1632,0.1612,0.1599,0.1601,0.1596,0.1613,0.1554,0.1547,0.1542,0.1522,0.1515,0.1609,0.1609,0.1609,0.161,0,0.1483,0.1478,0.1462,0.1476,0.1478,0.1464,0.1493,0.1491,0.1511,0.1527,0.1514,0.153,0.1534,0.1531,0.155,0.1514,0.1524,0.1548,0.158,0.1529,0.1511,0.1504,0.1604,0.1605,0.1606,0.1607,0,0,0.1388,0.142,0.1414,0.142,0.144,0.1437,0.1425,0.143,0.1427,0.1436,0.1426,0.1423,0.1445,0.1449,0.147,0.1457,0.1411,0.1483,0.1483,0.1468,0.1372,0.1353,0.1344,0.1428,0.1427,0.1426,0.137,0,0.1333,0.1316,0.1343,0.1319,0.1315,0.1353,0.1343,0.1353,0.1369,0.1366,0.1383,0.138,0.141,0.1413,0.1402,0.1419,0.1392,0.1424,0.1418,0.1417,0.1412,0.1335,0.1315,0.1262,0.1363,0.1362,0.1361,0,0.1266,0.1272,0.1247,0.1269,0.1268,0.1258,0.1265,0.1263,0.1276,0.1288,0.1292,0.1317,0.1307,0.1339,0.1324,0.1345,0.1344,0.1352,0.1351,0.135,0.1385,0.1331,0.1245,0.1237,0.1351,0.1352,0.1353,0,0.1198,0.12,0.1186,0.1191,0.1216,0.1208,0.1218,0.1232,0.1233,0.1239,0.124,0.1244,0.1245,0.1247,0.1272,0.1294,0.1254,0.1289,0.1263,0.1262,0.1252,0.1252,0.1164,0.1253,0.1253,0.1253,0.1254,0,0.1133,0.1116,0.1156,0.1147,0.1129,0.1161,0.1142,0.1156,0.1169,0.1162,0.1195,0.1189,0.1223,0.1219,0.1239,0.1223,0.1224,0.1232,0.1238,0.1229,0.1227,0.1228,0.1232,0.1251,0.1252,0.1252,0.1253,0,0.1054,0.108,0.1066,0.1092,0.1098,0.1083,0.1104,0.1096,0.1115,0.1106,0.1106,0.1133,0.1131,0.1157,0.1159,0.1172,0.1147,0.1159,0.1143,0.1146,0.1118,0.112,0.1027,0.1015,0.1113,0.1112,0.1111,0,0.101,0.0998,0.1022,0.102,0.1029,0.1026,0.1027,0.1059,0.1059,0.1073,0.1063,0.1063,0.1065,0.106,0.108,0.1082,0.1093,0.1061,0.1094,0.1085,0.1091,0.1091,0.109,0.1053,0.1052,0.1051,0.105,0,0.0928,0.0942,0.0943,0.0949,0.095,0.0955,0.0963,0.096,0.0994,0.0992,0.0991,0.0992,0.0995,0.0995,0.1001,0.101,0.1035,0.104,0.1034,0.1024,0.1014,0.1018,0.1122,0.1041,0.1042,0.1043,0.1043,0.1044,0.0865,0.0855,0.0871,0.0871,0.0881,0.0887,0.0881,0.0899,0.0898,0.0903,0.0922,0.0917,0.093,0.094,0.0948,0.0944,0.096,0.0951,0.0949,0.0946,0.094,0.1016,0.0945,0.0945,0.0946,0.0946,0.0946,0,0.0784,0.0796,0.0796,0.0806,0.0806,0.0831,0.0841,0.0839,0.0834,0.0845,0.0847,0.0844,0.0845,0.0865,0.0867,0.086,0.0871,0.0859,0.0859,0.0861,0.0926,0.0931,0.085,0.085,0.085,0.085,0.085,0.085,0.0742,0.0728,0.0743,0.0734,0.0746,0.0742,0.0745,0.0751,0.076,0.0756,0.0757,0.077,0.0785,0.0788,0.0789,0.0795,0.0794,0.0777,0.0787,0.0847,0.0856,0.0865,0.087,0.0777,0.0777,0.0722,0.0721,0.0721]},{"header":{"parameterUnit":"m.s-1","parameterCategory":1,"la1":30.2991,"la2":30.254,"lo1":-89.0895,"lo2":-89.0444,"dy":0.0017,"dx":0.0017,"nx":28,"ny":28,"refTime":"2024-05-09T21:00:00:Z","depth":0,"parameterNumber":3,"parameterNumberName":"V-component_of_WINDS"},"data":[0,0,0,0,0,0,0,0,0,0,0,0,0,0,0,0,0,0,0,0,0,0,0,0,0,0,0,0,0,0,0,0,0,0,0,0,0,0,0,0,0,0,0,0,0,0,0,0,0,0,0,0,0,0,0,0,0,0,-0.9163,-0.9163,0,-0.9094,-0.9093,-0.9093,-0.9173,-0.9176,-0.918,-0.9182,-0.9102,-0.9097,-0.9092,0,0,0,0,0,0,0,0,0,0,0,0,0,-0.9359,-0.9355,-0.9163,-0.9163,-0.9162,-0.9094,-0.9093,-0.9092,-0.9173,-0.9177,-0.918,-0.9184,-0.9104,-0.9098,-0.9092,0,0,0,0,0,0,0,0,0,0,0,0,0,-0.928,-0.9354,-0.9164,-0.9194,-0.9196,-0.9094,-0.9093,-0.9092,-0.9172,-0.9177,-0.9181,-0.9186,-0.9106,-0.9098,-0.9091,-0.8953,0,0,-0.9068,-0.9065,0,0,0,0,0,0,0,0,-0.9284,-0.9273,-0.919,-0.9192,-0.9194,-0.9147,-0.9133,-0.9045,-0.9171,-0.9181,-0.9182,-0.9188,-0.9113,-0.9105,-0.9082,-0.895,-0.8946,-0.9068,-0.9063,-0.906,-0.9058,0,0,0,0,0,0,0,-0.929,-0.9276,-0.9136,-0.9189,-0.9191,-0.9209,-0.9203,-0.9117,-0.9122,-0.918,-0.9186,-0.9177,-0.9115,-0.9089,-0.908,-0.8945,-0.9068,-0.9061,-0.9057,-0.9054,-0.8698,-0.8693,0,0,0,0,0,0,-0.9293,-0.928,-0.9138,-0.9134,-0.9252,-0.9202,-0.9195,-0.9157,-0.9123,-0.9122,-0.9173,-0.9181,-0.9099,-0.9089,-0.9078,-0.8915,-0.906,-0.9053,-0.9049,-0.8703,-0.8697,-0.8691,0,0,0,0,0,0,-0.9297,-0.9279,-0.9141,-0.9209,-0.9192,-0.9194,-0.9151,-0.9154,-0.9128,-0.9118,-0.9118,-0.9146,-0.9102,-0.9088,-0.8985,-0.8913,-0.905,-0.9043,-0.8709,-0.8701,-0.8694,-0.8587,0,0,0,0,0,0,-0.9302,-0.928,-0.9229,-0.9207,-0.9189,-0.905,-0.9146,-0.9149,-0.9116,-0.9126,-0.9093,-0.9091,-0.9105,-0.8995,-0.8977,-0.8905,-0.9037,-0.8715,-0.8705,-0.8696,-0.8597,-0.8577,-0.8559,0,0,0,0,0,-0.9309,-0.9199,-0.9226,-0.9208,-0.9125,-0.9046,-0.9035,-0.9055,-0.911,-0.9058,-0.9052,-0.9093,-0.8925,-0.8984,-0.8964,-0.8889,-0.8719,-0.8708,-0.8697,-0.8605,-0.8581,-0.856,0,0,0,0,0,0,-0.9209,-0.9197,-0.9226,-0.9107,-0.9077,-0.906,-0.8994,-0.9029,-0.898,-0.8991,-0.9016,-0.9007,-0.8897,-0.8883,-0.895,-0.8755,-0.8831,-0.8815,-0.8767,-0.8744,-0.8726,-0.873,-0.9031,0,0,0,0,0,-0.9174,-0.9113,-0.9105,-0.9,-0.8985,-0.8992,-0.8958,-0.8977,-0.8946,-0.8933,-0.8919,-0.8885,-0.8825,-0.8784,-0.8728,-0.8596,-0.859,-0.8535,-0.8516,-0.8501,-0.8486,-0.8416,-0.8392,-0.8655,-0.8655,-0.8655,0,0,-0.9099,-0.9085,-0.9044,-0.898,-0.8959,-0.8894,-0.898,-0.8907,-0.8858,-0.892,-0.8822,-0.8812,-0.8775,-0.8657,-0.8604,-0.8642,-0.8413,-0.8487,-0.8475,-0.8468,-0.8402,-0.8377,-0.8355,-0.8647,-0.8648,-0.865,0,0,-0.8929,-0.8913,-0.8825,-0.8803,-0.8772,-0.8779,-0.8758,-0.8736,-0.8732,-0.8635,-0.8681,-0.8623,-0.8518,-0.8491,-0.8463,-0.8288,-0.8323,-0.8268,-0.817,-0.8101,-0.808,-0.8062,-0.7999,-0.7976,-0.8254,-0.8254,-0.8254,0,-0.8838,-0.8744,-0.8774,-0.8698,-0.8668,-0.8727,-0.8637,-0.8614,-0.8564,-0.8541,-0.8585,-0.8458,-0.8437,-0.8314,-0.8272,-0.8248,-0.8223,-0.8271,-0.8082,-0.8064,-0.8047,-0.7986,-0.7963,-0.8248,-0.8248,-0.8249,-0.825,0,-0.8635,-0.8569,-0.8501,-0.8456,-0.8419,-0.8336,-0.8351,-0.831,-0.8333,-0.8335,-0.8235,-0.8214,-0.8155,-0.8128,-0.8148,-0.8008,-0.8032,-0.8079,-0.8155,-0.8015,-0.7958,-0.7936,-0.8238,-0.8241,-0.8243,-0.8244,0,0,-0.8395,-0.8372,-0.8346,-0.8327,-0.8299,-0.8248,-0.8168,-0.8115,-0.8078,-0.8043,-0.7976,-0.7888,-0.7932,-0.7901,-0.7919,-0.7859,-0.7721,-0.7913,-0.7913,-0.7877,-0.7565,-0.7529,-0.7501,-0.7746,-0.7742,-0.7739,-0.7568,0,-0.8224,-0.8089,-0.8115,-0.7982,-0.7921,-0.7978,-0.7908,-0.7883,-0.7883,-0.783,-0.7829,-0.7767,-0.7829,-0.7811,-0.7755,-0.775,-0.7658,-0.7763,-0.7681,-0.7678,-0.7686,-0.7472,-0.7433,-0.7272,-0.7546,-0.7542,-0.7539,0,-0.8006,-0.7967,-0.7829,-0.7813,-0.7788,-0.7726,-0.768,-0.7629,-0.7601,-0.7606,-0.7573,-0.7604,-0.7523,-0.7603,-0.7492,-0.7562,-0.7531,-0.7524,-0.7518,-0.7509,-0.7598,-0.7455,-0.7221,-0.7196,-0.7505,-0.7508,-0.751,0,-0.7844,-0.7757,-0.7664,-0.7646,-0.7625,-0.758,-0.7568,-0.7546,-0.7513,-0.7472,-0.7451,-0.74,-0.7371,-0.7331,-0.7347,-0.7404,-0.7232,-0.7313,-0.7231,-0.723,-0.7189,-0.7191,-0.6945,-0.7172,-0.7173,-0.7173,-0.7174,0,-0.7648,-0.7561,-0.7591,-0.7533,-0.7437,-0.7468,-0.7372,-0.7367,-0.7347,-0.7288,-0.7334,-0.7277,-0.7302,-0.7247,-0.7259,-0.7164,-0.7151,-0.7151,-0.7154,-0.7145,-0.7145,-0.7123,-0.7134,-0.7167,-0.7168,-0.717,-0.7171,0,-0.7449,-0.7466,-0.7368,-0.7359,-0.7354,-0.7284,-0.7275,-0.722,-0.7226,-0.7151,-0.7135,-0.7142,-0.708,-0.7093,-0.7022,-0.7031,-0.6912,-0.6931,-0.6922,-0.6925,-0.6842,-0.6849,-0.6571,-0.6536,-0.6788,-0.6786,-0.6784,0,-0.7322,-0.7257,-0.7243,-0.7208,-0.7195,-0.7138,-0.7106,-0.7135,-0.7099,-0.7065,-0.7013,-0.6956,-0.6912,-0.6809,-0.6807,-0.6754,-0.677,-0.6677,-0.6762,-0.6756,-0.6767,-0.677,-0.6763,-0.6658,-0.6656,-0.6653,-0.6651,0,-0.7095,-0.7108,-0.7061,-0.7018,-0.6979,-0.6945,-0.6916,-0.6884,-0.6911,-0.6868,-0.6807,-0.6773,-0.6704,-0.6646,-0.6598,-0.6585,-0.6621,-0.6626,-0.6603,-0.6592,-0.6589,-0.6588,-0.6874,-0.6631,-0.6633,-0.6634,-0.6635,-0.6636,-0.6927,-0.6873,-0.6855,-0.6801,-0.6784,-0.6756,-0.6705,-0.6706,-0.6656,-0.6605,-0.6625,-0.6554,-0.653,-0.6471,-0.6452,-0.6396,-0.6431,-0.6399,-0.639,-0.6381,-0.6371,-0.6601,-0.6388,-0.6388,-0.6389,-0.6389,-0.639,0,-0.6701,-0.6694,-0.6645,-0.6604,-0.6563,-0.6606,-0.6577,-0.6538,-0.6476,-0.6453,-0.6409,-0.6339,-0.6285,-0.628,-0.6228,-0.6184,-0.62,-0.6169,-0.6171,-0.6168,-0.6343,-0.6367,-0.6158,-0.6158,-0.6158,-0.6158,-0.6158,-0.6158,-0.6579,-0.6489,-0.65,-0.6402,-0.6394,-0.6328,-0.6308,-0.6282,-0.6264,-0.6185,-0.6141,-0.614,-0.6123,-0.6071,-0.6022,-0.6023,-0.6,-0.5963,-0.5969,-0.6132,-0.6155,-0.6177,-0.6199,-0.5958,-0.5958,-0.5798,-0.5796,-0.5795]}]]